Flag for United Kingdom Weather past 2 weeks in Bath, England, United Kingdom

Now
43 °F

Passing clouds.


Feels Like: 37 °F
Forecast: 37 / 52 °F
Wind: 10 mph from Northeast

Location: Bristol / Lulsgate

Current Time: Apr 26, 2015 at 2:14:56 AM

Latest Report: Apr 26, 2015 at 1:20 AM


Visibility: N/A

Pressure: 29.74 "Hg

Humidity: 100%

Dew point: 43 °F

Location of BathLocation

Historic Weather in Bath — Graph

°F

Bath temperature yesterday

Maximum temperature yesterday: 59 °F (at 1:50 PM)
Minimum temperature yesterday: 45 °F (at 11:50 PM)
Average temperature yesterday: 52 °F

Past Weeks' High & Low Weather Summary

 TemperatureHumidityPressure
High63 °F (Apr 14, 4:50 PM)100% (Apr 12, 9:20 PM)30.54 "Hg (Apr 12, 9:20 PM)
Low34 °F (Apr 20, 4:50 AM)39% (Apr 21, 2:20 PM)29.65 "Hg (Apr 25, 5:20 AM)
Average50 °F74%30.17 "Hg
* Reported Apr 11 1:20 AM — Apr 26 1:20 AM, Bath, Weather by CustomWeather, © 2015

Note: Actual official high and low records may vary slightly from our data, if they occured in-between our weather recording intervals... More about our weather records

Advertising

Bath weather history for previous 24 hours

 ConditionsComfort  
Time TempWeatherWind HumidityBarometerVisibility
1:20 AM
Sun, Apr 26
43 °FPassing clouds.10 mph100%29.74 "HgN/A
12:50 AM43 °FPassing clouds.10 mph100%29.71 "HgN/A
12:20 AM45 °FPartly cloudy.12 mph93%29.71 "HgN/A
11:50 PM
Sat, Apr 25
45 °FLight rain. Partly cloudy.13 mph93%29.71 "HgN/A
11:20 PM46 °FLight rain. Passing clouds.12 mph93%29.71 "Hg3 mi
10:20 PM48 °FLight rain. Passing clouds.5 mph100%29.71 "Hg4 mi
9:50 PM48 °FLight rain. Passing clouds.5 mph100%29.71 "Hg6 mi
9:20 PM48 °FLight rain. Passing clouds.5 mph100%29.71 "Hg6 mi
8:50 PM48 °FLight rain. Scattered clouds.5 mph100%29.68 "Hg4 mi
8:20 PM50 °FSnow. Scattered clouds.6 mph94%29.68 "Hg4 mi
7:50 PM50 °FMixture of precip. Broken clouds.6 mph94%29.68 "Hg4 mi
7:20 PM50 °FRain. Broken clouds.7 mph100%29.68 "Hg4 mi
6:50 PM52 °FRain. Broken clouds.7 mph94%29.68 "Hg4 mi
6:20 PM52 °FLight rain. Partly sunny.9 mph88%29.68 "Hg5 mi
5:50 PM54 °FDrizzle. Partly sunny.9 mph82%29.65 "HgN/A
5:20 PM55 °FBroken clouds.8 mph72%29.65 "HgN/A
4:50 PM57 °FPartly sunny.9 mph63%29.65 "HgN/A
4:20 PM55 °FPartly sunny.9 mph72%29.68 "HgN/A
3:50 PM57 °FPassing clouds.8 mph63%29.68 "HgN/A
3:20 PM57 °FPassing clouds.9 mph63%29.68 "HgN/A
2:50 PM57 °FPassing clouds.12 mph63%29.68 "HgN/A
2:20 PM59 °FScattered clouds.12 mph63%29.68 "HgN/A
1:50 PM59 °FScattered clouds.10 mph63%29.68 "HgN/A
1:20 PM57 °FBroken clouds.13 mph63%29.68 "HgN/A
12:50 PM57 °FBroken clouds.13 mph63%29.68 "HgN/A
12:20 PM57 °FBroken clouds.13 mph63%29.68 "HgN/A
11:50 AM57 °FPartly sunny.14 mph63%29.68 "HgN/A
11:20 AM55 °FBroken clouds.13 mph72%29.68 "HgN/A
10:50 AM54 °FBroken clouds.13 mph77%29.68 "HgN/A
10:20 AM55 °FBroken clouds.14 mph72%29.68 "HgN/A
9:50 AM54 °FBroken clouds.13 mph77%29.68 "HgN/A
9:20 AM54 °FBroken clouds.14 mph77%29.68 "HgN/A
8:50 AM54 °FPartly sunny.12 mph82%29.68 "HgN/A
8:20 AM52 °FScattered clouds.10 mph88%29.68 "HgN/A
7:50 AM50 °FPartly sunny.9 mph94%29.68 "HgN/A
7:20 AM50 °FBroken clouds.7 mph100%29.68 "HgN/A
6:50 AM50 °FPartly cloudy.7 mph100%29.68 "Hg5 mi
6:20 AM50 °FPassing clouds.8 mph100%29.65 "Hg4 mi
5:50 AM50 °FPassing clouds.7 mph100%29.65 "Hg4 mi
5:20 AM50 °FPassing clouds.9 mph100%29.65 "Hg4 mi
4:20 AM50 °FFog.8 mph100%29.68 "Hg1 mi
3:50 AM50 °FFog.9 mph100%29.68 "Hg1 mi
3:20 AM50 °FFog.9 mph100%29.68 "Hg1 mi
2:50 AM50 °FFog.8 mph100%29.68 "Hg1 mi
2:20 AM50 °FFog.8 mph100%29.71 "Hg2 mi
Weather by CustomWeather, © 2015

See weather overviewHow to use our weather pages